Flag for Poland Past Weather in Jastrzębie Zdrój, Poland — Yesterday and Last 2 Weeks

Now
89 °F

Partly sunny.


Feels Like: 88 °F
Forecast: 62 / 85 °F
Wind: 6 mph from Southwest

Location: Ostrava / Mosnov

Current Time: Jun 30, 2016 at 2:25:19 PM

Latest Report: Jun 30, 2016 at 2:00 PM


Visibility: 25 mi

Pressure: 29.89 "Hg

Humidity: 35%

Dew Point: 58 °F

Location of Jastrzębie ZdrójLocation

Past Weather in Jastrzębie Zdrój — Graph

°F

Jastrzębie Zdrój Temperature Yesterday

Maximum temperature yesterday: 84 °F (at 4:00 PM)
Minimum temperature yesterday: 53 °F (at 5:00 AM)
Average temperature yesterday: 71 °F

High & Low Weather Summary for the Past Weeks

 TemperatureHumidityPressure
High95 °F (Jun 25, 2:00 PM)100% (Jun 16, 2:00 AM)30.30 "Hg (Jun 16, 2:00 AM)
Low51 °F (Jun 19, 4:00 AM)32% (Jun 25, 2:00 PM)29.41 "Hg (Jun 17, 8:00 AM)
Average69 °F71%29.99 "Hg
* Reported Jun 15 1:00 PM — Jun 30 1:00 PM, Jastrzębie Zdrój, Weather by CustomWeather, © 2016

Note: Actual official high and low records may vary slightly from our data, if they occured in-between our weather recording intervals... More about our weather records

Advertising

Jastrzębie Zdrój Weather History for the Previous 24 Hours

Scroll right to see more
 ConditionsComfort  
Time TempWeatherWind HumidityBarometerVisibility
1:00 PM
Thu, Jun 30
85 °FScattered clouds.N/A39%29.92 "Hg25 mi
12:00 PM85 °FScattered clouds.N/A41%29.93 "Hg25 mi
11:00 AM84 °FPassing clouds.3 mph48%29.94 "Hg25 mi
10:00 AM81 °FPassing clouds.N/A54%29.96 "Hg25 mi
9:00 AM77 °FScattered clouds.N/A56%29.96 "Hg25 mi
8:00 AM69 °FScattered clouds.N/A74%29.98 "Hg19 mi
7:00 AM66 °FScattered clouds.2 mph78%29.98 "Hg19 mi
6:00 AM61 °FScattered clouds.2 mph89%29.99 "Hg19 mi
5:00 AM59 °FScattered clouds.2 mph89%29.98 "Hg16 mi
4:00 AM61 °FPassing clouds.2 mph90%29.98 "Hg12 mi
3:00 AM62 °FClear.N/A87%29.98 "Hg12 mi
2:00 AM64 °FClear.N/A83%29.97 "Hg12 mi
1:00 AM63 °FClear.2 mph86%29.96 "Hg12 mi
12:00 AM67 °FPassing clouds.2 mph75%29.96 "Hg12 mi
11:00 PM
Wed, Jun 29
71 °FPassing clouds.N/A66%29.95 "Hg12 mi
10:00 PM72 °FPassing clouds.N/A65%29.94 "Hg16 mi
9:00 PM76 °FPassing clouds.1 mph56%29.91 "Hg19 mi
8:00 PM80 °FScattered clouds.3 mph46%29.90 "Hg25 mi
7:00 PM82 °FScattered clouds.2 mph40%29.90 "Hg25 mi
6:00 PM82 °FScattered clouds.5 mph41%29.90 "Hg25 mi
5:00 PM83 °FPassing clouds.5 mph35%29.90 "Hg25 mi
4:00 PM84 °FPassing clouds.5 mph36%29.91 "Hg25 mi
3:00 PM83 °FPassing clouds.6 mph33%29.92 "Hg25 mi
2:00 PM82 °FPassing clouds.6 mph37%29.93 "Hg25 mi
Weather by CustomWeather, © 2016

See weather overviewHow to use our weather pages